User: anonymous   Login
Location: Bangkok
(13.7500°N, 100.5170°E)
Time: 21:53:37
(UTC+07:00)
Language:

Cosmos 1898 Rocket - Orbit

View from above orbital plane
View from above orbital plane
View from above satellite
View from above satellite

Ground track
Ground track

The orbit data is extracted from the following two-line orbital elements,

1 18586U 87098B   18110.21172054  .00000121  00000-0  49732-4 0  9996
2 18586  74.0057  89.9653 0019746  73.2659 287.0659 14.36818669591455
Epoch (UTC): 20 April 2018 05:04:52
Eccentricity: 0.0019746
inclination: 74.0057°
perigee height: 755 km
apogee height: 783 km
right ascension of ascending node: 89.9653°
argument of perigee: 73.2659°
revolutions per day: 14.36818669
mean anomaly at epoch: 287.0659°
orbit number at epoch: 59145

The dashed part of the orbit path shows where the satellite is in the earth's shadow,  

DLR